HZ102 WICC-WIHH

Flight info

Callsign HZ102
Flight time 0h 16m
Altitude 12000
Route PW
Aircraft B738/M-SDE2E3FGHIRWXY/LB1

Departure

Time 2026-04-21 06:35
Airport Husein Sastranegara International Airport (WICC)

Arrival

Time 2026-04-21 06:52
Airport Halim Perdanakusuma International Airport (WIHH)
Time Latitude Longitude Altitude Speed Heading
2026-04-21 05:53 -6.90294 107.57957 2410 ft 0 kts 189°
2026-04-21 06:25 -6.90297 107.57956 2409 ft 1 kts 189°
2026-04-21 06:25 -6.90306 107.57955 2400 ft 0 kts 189°
2026-04-21 06:29 -6.90309 107.57956 2410 ft 1 kts 171°
2026-04-21 06:29 -6.90320 107.57977 2403 ft 5 kts 88°
2026-04-21 06:30 -6.90315 107.58012 2401 ft 4 kts 74°
2026-04-21 06:30 -6.90312 107.58022 2401 ft 0 kts 71°
2026-04-21 06:30 -6.90311 107.58026 2401 ft 3 kts 69°
2026-04-21 06:30 -6.90309 107.58030 2401 ft 0 kts 67°
2026-04-21 06:31 -6.90296 107.58047 2407 ft 5 kts 45°
2026-04-21 06:31 -6.90274 107.58062 2413 ft 2 kts 28°
2026-04-21 06:31 -6.90246 107.58078 2417 ft 11 kts 40°
2026-04-21 06:32 -6.90252 107.58174 2422 ft 14 kts 109°
2026-04-21 06:32 -6.90282 107.58260 2420 ft 12 kts 109°
2026-04-21 06:32 -6.90310 107.58342 2418 ft 13 kts 109°
2026-04-21 06:32 -6.90341 107.58433 2418 ft 15 kts 109°
2026-04-21 06:33 -6.90385 107.58498 2405 ft 11 kts 138°
2026-04-21 06:33 -6.90389 107.58547 2402 ft 6 kts 24°
2026-04-21 06:33 -6.90376 107.58538 2404 ft 3 kts 294°
2026-04-21 06:33 -6.90374 107.58532 2404 ft 0 kts 287°
2026-04-21 06:34 -6.90373 107.58528 2404 ft 8 kts 287°
2026-04-21 06:34 -6.90273 107.58233 2420 ft 81 kts 289°
2026-04-21 06:34 -6.90014 107.57476 2402 ft 146 kts 289°
2026-04-21 06:35 -6.89617 107.56391 2692 ft 171 kts 291°
2026-04-21 06:35 -6.89214 107.55267 3556 ft 173 kts 288°
2026-04-21 06:35 -6.88870 107.54068 4152 ft 181 kts 285°
2026-04-21 06:35 -6.88528 107.52736 4444 ft 212 kts 285°
2026-04-21 06:36 -6.88067 107.51235 4594 ft 238 kts 301°
2026-04-21 06:36 -6.86798 107.50116 4931 ft 252 kts 331°
2026-04-21 06:36 -6.85266 107.49216 5492 ft 257 kts 331°
2026-04-21 06:36 -6.83704 107.48280 6071 ft 270 kts 330°
2026-04-21 06:37 -6.82035 107.47261 6589 ft 285 kts 330°
2026-04-21 06:37 -6.80353 107.46214 7358 ft 290 kts 330°
2026-04-21 06:37 -6.78623 107.45123 8126 ft 292 kts 329°
2026-04-21 06:37 -6.76902 107.44030 8435 ft 290 kts 329°
2026-04-21 06:38 -6.75195 107.42944 8512 ft 298 kts 329°
2026-04-21 06:38 -6.73413 107.41859 8507 ft 298 kts 337°
2026-04-21 06:38 -6.71419 107.41498 8516 ft 289 kts
2026-04-21 06:38 -6.69557 107.42094 8528 ft 284 kts 31°
2026-04-21 06:39 -6.67946 107.43252 8562 ft 282 kts 41°
2026-04-21 06:39 -6.66432 107.44528 8508 ft 284 kts 42°
2026-04-21 06:39 -6.64859 107.45721 8481 ft 288 kts 29°
2026-04-21 06:39 -6.62908 107.46182 8504 ft 290 kts
2026-04-21 06:40 -6.60891 107.45927 8517 ft 293 kts 349°
2026-04-21 06:40 -6.58906 107.45503 8509 ft 294 kts 349°
2026-04-21 06:40 -6.56898 107.45069 8500 ft 295 kts 348°
2026-04-21 06:40 -6.54937 107.44416 8494 ft 297 kts 339°
2026-04-21 06:41 -6.53061 107.43603 8500 ft 297 kts 337°
2026-04-21 06:41 -6.51200 107.42689 8485 ft 299 kts 327°
2026-04-21 06:41 -6.49721 107.41207 8499 ft 300 kts 310°
2026-04-21 06:41 -6.48428 107.39575 8488 ft 299 kts 309°
2026-04-21 06:42 -6.47155 107.37935 8377 ft 298 kts 309°
2026-04-21 06:42 -6.45883 107.36313 8184 ft 293 kts 309°
2026-04-21 06:42 -6.44616 107.34719 7925 ft 290 kts 309°
2026-04-21 06:42 -6.43349 107.33143 7627 ft 289 kts 310°
2026-04-21 06:43 -6.42099 107.31601 7335 ft 288 kts 310°
2026-04-21 06:43 -6.40821 107.30032 7035 ft 288 kts 310°
2026-04-21 06:43 -6.39549 107.28477 6732 ft 287 kts 310°
2026-04-21 06:43 -6.38275 107.26923 6412 ft 287 kts 310°
2026-04-21 06:44 -6.37014 107.25386 6068 ft 288 kts 310°
2026-04-21 06:44 -6.35735 107.23829 5747 ft 287 kts 310°
2026-04-21 06:44 -6.34464 107.22280 5436 ft 286 kts 310°
2026-04-21 06:44 -6.33214 107.20759 5123 ft 284 kts 310°
2026-04-21 06:45 -6.31961 107.19234 4806 ft 278 kts 310°
2026-04-21 06:45 -6.30759 107.17772 4510 ft 272 kts 310°
2026-04-21 06:45 -6.29561 107.16314 4213 ft 265 kts 310°
2026-04-21 06:45 -6.28407 107.14911 4069 ft 252 kts 311°
2026-04-21 06:46 -6.27304 107.13571 3743 ft 249 kts 310°
2026-04-21 06:46 -6.26225 107.12257 3546 ft 238 kts 310°
2026-04-21 06:46 -6.25209 107.11017 3382 ft 221 kts 310°
2026-04-21 06:46 -6.24278 107.09888 3268 ft 204 kts 311°
2026-04-21 06:47 -6.23397 107.08819 3192 ft 189 kts 311°
2026-04-21 06:47 -6.22599 107.07846 3102 ft 178 kts 311°
2026-04-21 06:47 -6.21821 107.06900 2930 ft 173 kts 313°
2026-04-21 06:47 -6.21060 107.05980 2748 ft 168 kts 312°
2026-04-21 06:48 -6.20328 107.05067 2616 ft 168 kts 304°
2026-04-21 06:48 -6.20060 107.03924 2525 ft 173 kts 268°
2026-04-21 06:48 -6.20393 107.02758 2508 ft 176 kts 246°
2026-04-21 06:48 -6.20913 107.01635 2500 ft 178 kts 246°
2026-04-21 06:49 -6.21431 107.00514 2497 ft 174 kts 245°
2026-04-21 06:49 -6.21942 106.99422 2445 ft 174 kts 246°
2026-04-21 06:49 -6.22475 106.98261 2089 ft 182 kts 246°
2026-04-21 06:49 -6.22978 106.97164 2017 ft 165 kts 247°
2026-04-21 06:50 -6.23454 106.96121 1803 ft 168 kts 246°
2026-04-21 06:50 -6.23949 106.95039 1446 ft 169 kts 248°
2026-04-21 06:50 -6.24446 106.93951 1060 ft 167 kts 246°
2026-04-21 06:50 -6.24897 106.92965 856 ft 143 kts 245°
2026-04-21 06:51 -6.25303 106.92076 636 ft 137 kts 246°
2026-04-21 06:51 -6.25718 106.91158 354 ft 150 kts 246°
2026-04-21 06:51 -6.26160 106.90204 158 ft 149 kts 246°
2026-04-21 06:51 -6.26568 106.89307 94 ft 129 kts 245°
2026-04-21 06:52 -6.26775 106.88866 94 ft 42 kts 245°
2026-04-21 06:52 -6.26847 106.88712 92 ft 12 kts 245°
2026-04-21 06:52 -6.26882 106.88636 93 ft 0 kts 245°
2026-04-21 06:52 -6.26894 106.88609 92 ft 9 kts 248°
2026-04-21 06:53 -6.26877 106.88537 91 ft 9 kts 306°
2026-04-21 06:53 -6.26845 106.88516 91 ft 3 kts 336°
2026-04-21 06:53 -6.26820 106.88506 94 ft 5 kts 338°
2026-04-21 06:53 -6.26782 106.88490 92 ft 6 kts 338°
2026-04-21 06:54 -6.26741 106.88480 92 ft 6 kts
2026-04-21 06:54 -6.26707 106.88507 92 ft 6 kts 30°
2026-04-21 06:54 -6.26692 106.88509 93 ft 1 kts
2026-04-21 06:54 -6.26676 106.88504 92 ft 3 kts 331°
2026-04-21 06:55 -6.26667 106.88501 93 ft 0 kts 336°
2026-04-21 06:55 -6.26665 106.88500 93 ft 0 kts 336°
2026-04-21 06:55 -6.26662 106.88499 93 ft 0 kts 336°
2026-04-21 06:55 -6.26659 106.88497 92 ft 1 kts 336°
2026-04-21 06:56 -6.26655 106.88495 92 ft 1 kts 336°
2026-04-21 06:56 -6.26653 106.88495 92 ft 0 kts 336°